Skip Page Navigation
NASA JPL Caltech
NASA Logo - Jet Propulsion Laboratory + View the NASA Portal
+ Center for Near-Earth Object Studies
JPL Home Earth Solar System Stars & Galaxies Technology
JPL Solar System Dynamics
BODIES ORBITS EPHEMERIDES TOOLS PHYSICAL DATA DISCOVERY FAQ SITE MAP
JPL Small-Body Database Browser
Search: [ help ]  
67146 (2000 AN175)
Classification: Main-belt Asteroid          SPK-ID: 2067146
Ephemeris | Orbit Diagram | Orbital Elements | Mission Design | Physical Parameters | Discovery Circumstances | Close-Approach Data ]

[ show orbit diagram ]
Orbital Elements at Epoch 2459200.5 (2020-Dec-17.0) TDB
Reference: JPL 30 (heliocentric ecliptic J2000)
 Element Value Uncertainty (1-sigma)   Units 
e .1308847480676405 3.4114e-08  
a 2.968017198601592 1.8401e-08 au
q 2.579549015302199 1.02e-07 au
i 11.19596411722921 3.8496e-06 deg
node 135.1974986427597 2.0487e-05 deg
peri 290.5362503243764 2.6919e-05 deg
M 56.66397255572674 1.6279e-05 deg
tp 2458906.530303276790
(2020-Feb-27.03030328)
8.4269e-05 TDB
period 1867.660985404384
5.11
1.7368e-05
4.755e-08
d
yr
n .1927544681895538 1.7925e-09 deg/d
Q 3.356485381900986 2.0809e-08 au
  Orbit Determination Parameters
   # obs. used (total)      1084  
   data-arc span      7776 days (21.29 yr)  
   first obs. used      1999-12-05  
   last obs. used      2021-03-20  
   planetary ephem.      DE441  
   SB-pert. ephem.      SB441-N16  
   condition code      0  
   norm. resid. RMS      .49649  
   source      ORB  
   producer      Otto Matic  
   solution date      2021-May-04 07:03:24  

Additional Information
 Earth MOID = 1.61906 au 
 Jupiter MOID = 1.97141 au 
 T_jup = 3.222 
[ show covariance matrix ]

Ephemeris | Orbit Diagram | Orbital Elements | Mission Design | Physical Parameters | Discovery Circumstances | Close-Approach Data ]

Physical Parameter Table
Parameter Symbol Value Units Sigma Reference Notes
absolute magnitude H 14.53   n/a MPCxxxxx  
diameter diameter 4.558 km 0.123 urn:nasa:pds:neowise_diameters_albedos::2.0[mainbelt] (http://adsabs.harvard.edu/abs/2011ApJ...741...68M)  
geometric albedo albedo 0.178   0.026 urn:nasa:pds:neowise_diameters_albedos::2.0[mainbelt] (http://adsabs.harvard.edu/abs/2011ApJ...741...68M)  

67146 (2000 AN175)          Discovered 2000-Jan-07 by LINEAR at Socorro
Reference: 20030910/Numbers.arcLast Updated: 2004-04-19

[ show close-approach data ]
Alternate Designations
 2000 AN175 = 2001 FV95 
Ephemeris | Orbit Diagram | Orbital Elements | Mission Design | Physical Parameters | Discovery Circumstances | Close-Approach Data ]
ABOUT SSD CREDITS/AWARDS PRIVACY/COPYRIGHT GLOSSARY LINKS
FirstGov 2021-Jun-19 11:46 UT
(server date/time)  
NASA Home Page
Site Manager:   Ryan S. Park
Webmaster  Alan B. Chamberlin